This is the latest recevied weather packets stored in our database for station/object N8QQQ. If no packets are shown the sender has not sent any weather packets the latest 10 day(s).
| Time | Temp. | Humidity | Pressure | Rain* | Wind** | Luminosity | Snow |
|---|---|---|---|---|---|---|---|
| 1778089282 | 3.33° C | 57% | 1011.9 hPa | 0 mm | - | 123 W/m² | - |
| 1778088980 | 3.33° C | 57% | 1011.9 hPa | 0 mm | - | 117 W/m² | - |
| 1778088676 | 2.78° C | 58% | 1011.9 hPa | 0 mm | - | 125 W/m² | - |
| 1778088374 | 2.78° C | 59% | 1012.2 hPa | 0 mm | - | 136 W/m² | - |
| 1778088070 | 2.78° C | 62% | 1011.9 hPa | 0 mm | - | 83 W/m² | - |
| 1778087768 | 2.78° C | 61% | 1012.2 hPa | 0 mm | - | 75 W/m² | - |
| 1778087465 | 3.33° C | 58% | 1011.9 hPa | 0 mm | - | 87 W/m² | - |
| 1778087161 | 2.78° C | 57% | 1012.3 hPa | 0 mm | - | 105 W/m² | - |
| 1778086854 | 2.78° C | 57% | 1011.9 hPa | 0 mm | - | 117 W/m² | - |
| 1778086552 | 2.78° C | 59% | 1012 hPa | 0 mm | - | 117 W/m² | - |
| 1778086248 | 2.78° C | 59% | 1012 hPa | 0 mm | - | 104 W/m² | - |
| 1778085945 | 2.78° C | 58% | 1011.8 hPa | 0 mm | - | 96 W/m² | - |
| 1778085642 | 2.78° C | 58% | 1011.8 hPa | 0 mm | - | 96 W/m² | - |
| 1778085338 | 2.78° C | 58% | 1011.8 hPa | 0 mm | - | 86 W/m² | - |
| 1778085033 | 2.78° C | 60% | 1011.8 hPa | 0 mm | - | 83 W/m² | - |
| 1778084730 | 2.78° C | 61% | 1011.9 hPa | 0 mm | - | 71 W/m² | - |
| 1778084422 | 2.78° C | 59% | 1011.9 hPa | 0 mm | - | 67 W/m² | - |
| 1778084119 | 3.33° C | 58% | 1011.8 hPa | 0 mm | - | 117 W/m² | - |
| 1778083816 | 2.78° C | 59% | 1012 hPa | 0 mm | - | 155 W/m² | - |
| 1778083514 | 2.78° C | 61% | 1012 hPa | 0 mm | - | 86 W/m² | - |
| 1778083211 | 2.78° C | 60% | 1011.9 hPa | 0 mm | - | 76 W/m² | - |
| 1778082909 | 3.33° C | 60% | 1011.8 hPa | 0 mm | - | 128 W/m² | - |
| 1778081801 | 2.22° C | 64% | 1011.7 hPa | 0 mm | - | 121 W/m² | - |
| 1778081498 | 2.22° C | 63% | 1011.9 hPa | 0 mm | - | 97 W/m² | - |
| 1778081194 | 2.22° C | 62% | 1011.8 hPa | 0 mm | - | 88 W/m² | - |
* Rain latest hour (hover to see other rain measurements)
** Current wind speed in m/s (hover to see current wind gust speed)